Location: Arbon
(43.0005°N, 0.7472°E)
Time: 07:13:35
(UTC+00:00)

Vanguard 1 - Pass Details

Date: 30 November 2020
Orbit: 648 x 3834 km, 34.3° (Epoch: 21 January)

Event Time Altitude Azimuth Distance (km) Brightness Sun altitude
Rises 11:15:47 0° 271° (W) 5,358 13.8 24.9°
Reaches altitude 10° 11:19:52 10° 258° (WSW) 4,820 13.7 25.0°
Maximum altitude 11:30:14 23° 212° (SSW) 4,758 14.7 25.1°
Drops below altitude 10° 11:44:28 10° 170° (S) 6,690 16.1 25.2°
Sets 11:51:57 0° 158° (SSE) 7,928 15.8 25.2°
